Location: ????? ???????
(25.7275°N, 32.5929°E)
Time: 11:20:39
(UTC+00:00)

Meteor 1-11 Rocket - Pass Details

Date: 02 March 2021
Orbit: 831 x 916 km, 81.2° (Epoch: 15 April)

Event Time Altitude Azimuth Distance (km) Brightness Sun altitude
Rises 17:40:08 0° 187° (S) 3,498 6.9 -25.1°
Reaches altitude 10° 17:42:36 10° 188° (S) 2,550 6.2 -25.7°
Maximum altitude 17:48:25 85° 277° (W) 884 3.7 -27.0°
Drops below altitude 10° 17:54:07 10° 5° (N) 2,502 6.1 -28.3°
Sets 17:56:31 0° 6° (N) 3,429 6.9 -28.8°
